Regional Weather Roundup
Issued by NWS

Home | Current Version | Previous Version | Text Only | Print | Product List | Glossary Off
Versions: 1 2 3 4 5 6 7 8 9 10 11 12 13 14 15 16 17 18 19 20 21 22 23 24 25 26 27 28 29 30 31 32 33 34 35 36 37 38 39 40 41 42 43 44 45 46 47 48 49 50

715
ASUS45 KCYS 050010
RWRWY

WYOMING REGIONAL WEATHER ROUNDUP
NATIONAL WEATHER SERVICE CHEYENNE WY
600 PM MDT WED MAY 04 2016

NOTE:  "FAIR" INDICATES FEW OR NO CLOUDS BELOW 12,000 FEET
WITH NO SIGNIFICANT WEATHER AND/OR OBSTRUCTIONS TO VISIBILITY.

WYZ001-050100-
YELLOWSTONE NATIONAL PARK

CITY           SKY/WX    TMP DP  RH WIND       PRES   REMARKS
LK YELLOWSTONE   N/A     57  23  26 CALM      30.22F
6HR MIN TEMP:  51; 6HR MAX TEMP:  62;

W YELLOWSTONE  NOT AVBL

$$
WYZ002>013-054>058-071-098>099-050100-
NORTHERN WYOMING

CITY           SKY/WX    TMP DP  RH WIND       PRES   REMARKS
JACKSON        SUNNY     68  19  15 CALM      30.11F
CODY           FAIR      79  25  13 SW9       30.00S
GREYBULL       FAIR      82  21  10 S9        29.94F
6HR MIN TEMP:  75; 6HR MAX TEMP:  83;

WORLAND        FAIR      76  33  21 S5        29.97F
6HR MIN TEMP:  73; 6HR MAX TEMP:  81;

SHERIDAN       FAIR      79  39  23 E7        29.97F
6HR MIN TEMP:  76; 6HR MAX TEMP:  82;

BUFFALO        FAIR      75  35  23 E13       30.03F
6HR MIN TEMP:  73; 6HR MAX TEMP:  78;

GILLETTE       FAIR      74  41  30 SW6       30.01F
6HR MIN TEMP:  73; 6HR MAX TEMP:  79;

HULETT         FAIR      77  36  22 SW7       30.03F
NEWCASTLE      FAIR      75  32  20 S7        30.05F

$$
WYZ014>020-022>026-101>103-050100-
CENTRAL WYOMING

CITY           SKY/WX    TMP DP  RH WIND       PRES   REMARKS
BIG PINEY      FAIR      69  17  13 W6        30.15F
6HR MIN TEMP:  64; 6HR MAX TEMP:  73;

PINEDALE       FAIR      68  19  15 S10G17    30.16S
DUBOIS         FAIR      66  21  18 NW7       30.13F
LANDER         FAIR      74  23  15 SW12      30.03F
6HR MIN TEMP:  66; 6HR MAX TEMP:  77;

RIVERTON       FAIR      76  25  15 SE3       30.05F
6HR MIN TEMP:  64; 6HR MAX TEMP:  77;

CASPER         FAIR      74  26  16 W3        30.07F
6HR MIN TEMP:  70; 6HR MAX TEMP:  75;

DOUGLAS        FAIR      74  35  24 S6        30.08F
6HR MIN TEMP:  69; 6HR MAX TEMP:  75;


$$
WYZ021-027>030-104>119-050100-
SOUTHERN WYOMING

CITY           SKY/WX    TMP DP  RH WIND       PRES   REMARKS
EVANSTON       FAIR      70  18  13 S17G23    30.13F
6HR MIN TEMP:  66; 6HR MAX TEMP:  71;

KEMMERER         N/A     68  19  15 SE9       30.15F
FORT BRIDGER   CLEAR     72  21  15 S10G16    30.16F
ROCK SPRINGS   FAIR      68  21  16 S26       30.13F
6HR MIN TEMP:  64; 6HR MAX TEMP:  71;

DIXON          FAIR      72  20  14 SW3       30.19F
RAWLINS        FAIR      70  19  14 SW13      30.16F
6HR MIN TEMP:  66; 6HR MAX TEMP:  72;

SARATOGA       FAIR      70  21  16 W9        30.20F
LARAMIE        FAIR      66  24  20 CALM      30.21S
6HR MIN TEMP:  61; 6HR MAX TEMP:  67;

CHEYENNE       FAIR      69  34  27 SE8       30.16F
6HR MIN TEMP:  66; 6HR MAX TEMP:  73;

TORRINGTON     FAIR      75  34  22 SE7       30.06F
6HR MIN TEMP:  70; 6HR MAX TEMP:  76;

PINE BLUFFS    FAIR      70  32  24 E3        30.13F

$$




USA.gov is the U.S. government's official web portal to all federal, state and local government web resources and services.